Regional Weather Roundup
Issued by NWS

Home | Current Version | Previous Version | Graphics & Text | Print | Product List | Glossary Off
Versions: 1 2 3 4 5 6 7 8 9 10 11 12 13 14 15 16 17 18 19 20 21 22 23 24 25 26 27 28 29 30 31 32 33 34 35 36 37 38 39 40 41 42 43 44 45 46 47 48 49 50

000
ASUS43 KLSX 240410
RWRMO

WEATHER SUMMARY FOR MISSOURI
NATIONAL WEATHER SERVICE SPRINGFIELD MO
1100 PM CDT TUE MAY 23 2017

NOTE: "FAIR" INDICATES FEW OR NO CLOUDS BELOW 12,000 FEET WITH NO
       SIGNIFICANT WEATHER AND/OR OBSTRUCTIONS TO VISIBILITY.
       CURRENT SKY AND/OR WEATHER CONDITIONS ARE NOT AVAILABLE FOR
       CHILLICOTHE AND FARMINGTON.

MOZ001>031-035>038-043-044-053-054-240500-
...NORTHERN AND WESTERN MISSOURI...

CITY           SKY/WX    TMP DP  RH WIND       PRES   REMARKS
KANSAS CTY INT MOCLDY    53  47  79 NW7       29.79F
KANSAS C DTWN  CLOUDY    55  52  89 NW6       29.79S
LEE`S SUMMIT   CLOUDY    53  53 100 W5        29.79S
ST JOSEPH      MOCLDY    53  48  83 NW9       29.80S
CHILLICOTHE      N/A     53  46  77 CALM      29.77F
KIRKSVILLE     CLEAR     47  45  93 W5        29.74S

$$
MOZ066>068-077>081-088>096-101>105-240500-
...SOUTHWEST MISSOURI...

CITY           SKY/WX    TMP DP  RH WIND       PRES   REMARKS
SPRINGFIELD    MOCLDY    57  47  69 W6        29.77S
JOPLIN         CLOUDY    57  50  77 NW8       29.81R
BRANSON        MOCLDY    55  50  82 CALM      29.77F

$$
MOZ032>034-039>042-045>050-055>058-069>072-240500-
...CENTRAL MISSOURI...

CITY           SKY/WX    TMP DP  RH WIND       PRES   REMARKS
COLUMBIA       CLEAR     54  48  80 NW7       29.74S
JEFFERSON CITY CLEAR     58  50  75 CALM      29.74R
SEDALIA        CLOUDY    58  51  78 NW6       29.77S
WHITEMAN AFB   MOCLDY    55  55  99 NW6       29.76S
WARRENSBURG    CLOUDY    52  50  93 W5        29.78S
OSAGE BEACH    CLEAR     51  48  89 NW3       29.76S

$$
MOZ051-052-059>065-240500-
...EAST CENTRAL MISSOURI...

CITY           SKY/WX    TMP DP  RH WIND       PRES   REMARKS
ST LOUIS INTL  CLOUDY    63  56  78 CALM      29.70F
SPIRIT OF STL  LGT RAIN  59  59 100 SW3       29.70S
ST CHARLES     MOCLDY    58  57  97 CALM      29.69S

$$
MOZ072>076-082>087-097>100-106>115-240500-
...SOUTH CENTRAL AND SOUTHEAST MISSOURI...

CITY           SKY/WX    TMP DP  RH WIND       PRES   REMARKS
CAPE GIRARDEAU PTCLDY    62  55  77 VRB3      29.68F
FARMINGTON     CLOUDY    59  54  83 NW3       29.71F
POPLAR BLUFF   PTCLDY    60  58  92 NW5       29.69F
WEST PLAINS    CLOUDY    55  52  89 W3        29.75F

$$




USA.gov is the U.S. government's official web portal to all federal, state and local government web resources and services.